Location: Kaltenbach
(49.2000°N, 7.7500°E)
Time: 17:19:53
(UTC+00:00)

SKYMED 2 - Pass Details

Date: 24 January 2020
Orbit: 621 x 623 km, 97.9° (Epoch: 19 February)

Event Time Altitude Azimuth Distance (km) Brightness Sun altitude
Rises 17:18:54 0° 18° (NNE) 2,915 6.7 -10.9°
Reaches altitude 10° 17:21:10 10° 23° (NNE) 2,004 5.8 -11.3°
Maximum altitude 17:25:24 50° 100° (E) 800 3.8 -11.9°
Drops below altitude 10° 17:29:36 10° 176° (S) 1,987 6.3 -12.6°
Sets 17:31:50 0° 181° (S) 2,888 7.2 -13.0°
